Flag for Mexico Weather past 2 weeks in Cancún, Quintana Roo, Mexico

Now
79 °F

Partly sunny.


Feels Like: 82 °F
Forecast: 82 / 88 °F
Wind: 3 mph from East

Location: Cozumel Civ / Mil

Current Time: Jul 24, 2014 at 8:58:42 PM

Latest Report: Jul 24, 2014 at 7:40 PM


Visibility: 7 mi

Pressure: 29.99 "Hg

Humidity: 84%

Dew point: 73 °F

Location of CancúnLocation

Historic Weather in Cancún — Graph

°F

Cancún temperature yesterday

Maximum temperature yesterday: 90 °F (at 2:44 PM)
Minimum temperature yesterday: 73 °F (at 2:44 AM)
Average temperature yesterday: 80 °F

Past Weeks' High & Low Weather Summary

 TemperatureHumidityPressure
High90 °F (Jul 19, 2:42 PM)100% (Jul 9, 10:51 PM)30.09 "Hg (Jul 9, 10:51 PM)
Low70 °F (Jul 12, 5:44 AM)49% (Jul 23, 2:44 PM)29.96 "Hg (Jul 21, 5:46 AM)
Average80 °F87%30.02 "Hg
* Reported Jul 9 7:47 PM — Jul 24 7:40 PM, Cancún, Weather by CustomWeather, © 2014

Note: Actual official high and low records may vary slightly from our data, if they occured in-between our weather recording intervals... More about our weather records

Advertising

Cancún weather history for previous 24 hours

 ConditionsComfort  
Time TempWeatherWind HumidityBarometerVisibility
7:40 PM
Jul 24
79 °FPartly sunny.3 mph84%29.99 "Hg7 mi
6:48 PM81 °FPartly sunny.7 mph79%29.96 "Hg8 mi
5:42 PM84 °FScattered clouds.10 mph66%29.97 "Hg8 mi
4:47 PM86 °FScattered clouds.12 mph62%29.96 "Hg8 mi
3:40 PM84 °FScattered clouds.14 mph70%29.98 "Hg8 mi
2:42 PM86 °FScattered clouds.9 mph66%29.97 "Hg8 mi
1:40 PM86 °FPartly sunny.9 mph70%29.99 "Hg8 mi
12:51 PM86 °FPartly sunny.9 mph70%30.00 "Hg8 mi
11:40 AM84 °FPartly sunny.14 mph79%30.03 "Hg8 mi
10:44 AM84 °FPartly sunny.10 mph74%30.04 "Hg8 mi
9:42 AM82 °FPartly sunny.9 mph84%30.06 "Hg8 mi
8:41 AM81 °FScattered clouds.6 mph89%30.02 "Hg8 mi
7:45 AM79 °FPassing clouds.3 mph94%30.01 "Hg8 mi
6:42 AM72 °FPassing clouds.No wind100%29.98 "Hg8 mi
5:42 AM72 °FClear.No wind100%29.98 "Hg7 mi
4:42 AM72 °FClear.No wind100%29.98 "Hg7 mi
3:40 AM72 °FClear.No wind100%30.01 "Hg7 mi
2:45 AM73 °FClear.No wind100%29.98 "Hg7 mi
1:49 AM75 °FClear.No wind100%29.99 "Hg7 mi
12:51 AM75 °FClear.3 mph100%29.99 "Hg7 mi
11:50 PM
Jul 23
75 °FClear.3 mph100%30.02 "Hg7 mi
10:42 PM77 °FPassing clouds.5 mph94%30.02 "Hg7 mi
9:43 PM77 °FPassing clouds.6 mph94%30.04 "Hg7 mi
8:42 PM77 °FPassing clouds.No wind89%30.02 "Hg7 mi
Weather by CustomWeather, © 2014

See weather overviewHow to use our weather pages